EN

Hourly Weather Tonezh

Today, 15 April, Thursday

Time Temperature Precipitation Wind Pressure Humidity
00:00 +7°C° 0.1 mm 0 mps 746 mmHg 95%
01:00 +7°C° 0.1 mm 0 mps 746 mmHg 95%
02:00 +8°C° 0 mm 1 mps 746 mmHg 95%
03:00 +8°C° 0.1 mm 1 mps 746 mmHg 95%
04:00 +8°C° 0.1 mm 1 mps 746 mmHg 96%
05:00 +8°C° 0.1 mm 1 mps 746 mmHg 96%
06:00 +9°C° 0 mm 1 mps 746 mmHg 93%
07:00 +8°C° 0 mm 2 mps 746 mmHg 90%
08:00 +9°C° 0 mm 2 mps 746 mmHg 87%
09:00 +10°C° 0.2 mm 2 mps 746 mmHg 83%
10:00 +10°C° 0.2 mm 3 mps 746 mmHg 79%
11:00 +11°C° 0.2 mm 3 mps 746 mmHg 75%
12:00 +10°C° 0.3 mm 3 mps 745 mmHg 80%
13:00 +10°C° 0.3 mm 3 mps 745 mmHg 85%
14:00 +9°C° 0.3 mm 3 mps 745 mmHg 89%
15:00 +9°C° 0.1 mm 3 mps 745 mmHg 89%
16:00 +9°C° 0.1 mm 3 mps 745 mmHg 89%
17:00 +9°C° 0.1 mm 3 mps 745 mmHg 90%
18:00 +8°C° 0 mm 3 mps 745 mmHg 91%
19:00 +8°C° 0 mm 3 mps 745 mmHg 92%
20:00 +7°C° 0 mm 3 mps 745 mmHg 93%
21:00 +7°C° 0.3 mm 3 mps 744 mmHg 94%
22:00 +7°C° 0.3 mm 2 mps 744 mmHg 95%
23:00 +6°C° 0.3 mm 2 mps 744 mmHg 95%

Tomorrow, 16 April, Friday

Time Temperature Precipitation Wind Pressure Humidity
00:00 +6°C° 0.6 mm 2 mps 744 mmHg 96%
01:00 +6°C° 0.6 mm 2 mps 743 mmHg 96%
02:00 +7°C° 0.6 mm 1 mps 743 mmHg 97%
03:00 +7°C° 0.1 mm 1 mps 743 mmHg 97%
04:00 +7°C° 0.1 mm 1 mps 743 mmHg 97%
05:00 +7°C° 0.1 mm 1 mps 743 mmHg 97%
06:00 +8°C° 0 mm 1 mps 743 mmHg 95%
07:00 +8°C° 0 mm 1 mps 743 mmHg 93%
08:00 +9°C° 0 mm 1 mps 743 mmHg 91%
09:00 +9°C° 0.1 mm 1 mps 744 mmHg 88%
10:00 +9°C° 0.1 mm 2 mps 744 mmHg 85%
11:00 +9°C° 0.1 mm 2 mps 744 mmHg 82%
12:00 +9°C° 0.2 mm 2 mps 744 mmHg 82%
13:00 +9°C° 0.2 mm 2 mps 744 mmHg 82%
14:00 +9°C° 0.2 mm 2 mps 744 mmHg 82%
15:00 +9°C° 0.3 mm 2 mps 745 mmHg 83%
16:00 +9°C° 0.3 mm 2 mps 745 mmHg 84%
17:00 +8°C° 0.3 mm 2 mps 745 mmHg 86%
18:00 +8°C° 0.1 mm 2 mps 745 mmHg 88%
19:00 +8°C° 0.1 mm 1 mps 746 mmHg 91%
20:00 +8°C° 0.1 mm 1 mps 746 mmHg 93%
21:00 +7°C° 0 mm 1 mps 746 mmHg 94%
22:00 +7°C° 0 mm 1 mps 747 mmHg 94%
23:00 +7°C° 0 mm 1 mps 747 mmHg 94%

Day after tomorrow, 17 April, Saturday

Time Temperature Precipitation Wind Pressure Humidity
00:00 +6°C° 0 mm 1 mps 747 mmHg 95%
01:00 +6°C° 0 mm 1 mps 747 mmHg 95%
02:00 +5°C° 0 mm 2 mps 748 mmHg 95%
03:00 +6°C° 0 mm 1 mps 748 mmHg 95%
04:00 +6°C° 0 mm 1 mps 748 mmHg 94%
05:00 +6°C° 0 mm 1 mps 748 mmHg 94%
06:00 +6°C° 0 mm 1 mps 749 mmHg 91%
07:00 +5°C° 0 mm 2 mps 749 mmHg 88%
08:00 +6°C° 0 mm 2 mps 750 mmHg 86%
09:00 +6°C° 0 mm 2 mps 750 mmHg 83%
10:00 +8°C° 0 mm 1 mps 750 mmHg 81%
11:00 +8°C° 0 mm 1 mps 751 mmHg 79%
12:00 +9°C° 0 mm 1 mps 751 mmHg 75%
13:00 +9°C° 0 mm 2 mps 751 mmHg 72%
14:00 +10°C° 0 mm 2 mps 751 mmHg 69%
15:00 +11°C° 0 mm 1 mps 751 mmHg 69%
16:00 +11°C° 0 mm 1 mps 751 mmHg 68%
17:00 +11°C° 0 mm 1 mps 751 mmHg 68%
18:00 +10°C° 0 mm 1 mps 751 mmHg 73%
19:00 +9°C° 0 mm 1 mps 751 mmHg 77%
20:00 +7°C° 0 mm 2 mps 751 mmHg 82%
21:00 +6°C° 0 mm 2 mps 751 mmHg 85%
22:00 +6°C° 0 mm 2 mps 751 mmHg 87%
23:00 +6°C° 0 mm 2 mps 751 mmHg 90%

18 April, Sunday

Time Temperature Precipitation Wind Pressure Humidity
00:00 +6°C° 0.1 mm 2 mps 750 mmHg 90%
01:00 +6°C° 0.1 mm 2 mps 750 mmHg 90%
02:00 +6°C° 0.1 mm 2 mps 750 mmHg 90%
03:00 +6°C° 0.1 mm 2 mps 750 mmHg 91%
04:00 +6°C° 0.1 mm 2 mps 750 mmHg 92%
05:00 +6°C° 0.1 mm 2 mps 749 mmHg 92%
06:00 +6°C° 0.2 mm 2 mps 749 mmHg 93%
07:00 +6°C° 0.2 mm 2 mps 749 mmHg 93%
08:00 +6°C° 0.2 mm 2 mps 749 mmHg 93%
09:00 +6°C° 0.1 mm 2 mps 750 mmHg 92%
10:00 +8°C° 0.1 mm 1 mps 750 mmHg 91%
11:00 +8°C° 0.1 mm 1 mps 750 mmHg 90%
12:00 +9°C° 0 mm 1 mps 750 mmHg 88%
13:00 +9°C° 0 mm 1 mps 751 mmHg 86%
14:00 +10°C° 0 mm 1 mps 751 mmHg 84%
15:00 +10°C° 0 mm 1 mps 751 mmHg 83%
16:00 +10°C° 0 mm 1 mps 751 mmHg 83%
17:00 +11°C° 0 mm 1 mps 751 mmHg 82%
18:00 +10°C° 0 mm 1 mps 751 mmHg 86%
19:00 +9°C° 0 mm 1 mps 751 mmHg 89%
20:00 +9°C° 0 mm 1 mps 751 mmHg 93%
21:00 +9°C° 0 mm 1 mps 751 mmHg 92%
22:00 +8°C° 0 mm 2 mps 751 mmHg 92%
23:00 +8°C° 0 mm 2 mps 751 mmHg 91%

19 April, Monday

Time Temperature Precipitation Wind Pressure Humidity
00:00 +7°C° 0 mm 2 mps 751 mmHg 92%
01:00 +7°C° 0 mm 2 mps 751 mmHg 93%
02:00 +6°C° 0 mm 2 mps 751 mmHg 94%
03:00 +6°C° 0 mm 2 mps 751 mmHg 93%
04:00 +6°C° 0 mm 2 mps 751 mmHg 92%
05:00 +6°C° 0 mm 2 mps 751 mmHg 91%
06:00 +5°C° 0 mm 3 mps 751 mmHg 89%
07:00 +7°C° 0 mm 3 mps 751 mmHg 87%
08:00 +7°C° 0 mm 3 mps 751 mmHg 86%
09:00 +9°C° 0 mm 3 mps 751 mmHg 78%
10:00 +10°C° 0 mm 4 mps 751 mmHg 70%
11:00 +11°C° 0 mm 4 mps 751 mmHg 63%
12:00 +11°C° 0 mm 4 mps 751 mmHg 63%
13:00 +11°C° 0 mm 4 mps 751 mmHg 62%
14:00 +11°C° 0 mm 4 mps 751 mmHg 62%
15:00 +11°C° 0 mm 4 mps 751 mmHg 62%
16:00 +11°C° 0 mm 4 mps 751 mmHg 62%
17:00 +10°C° 0 mm 4 mps 750 mmHg 63%
18:00 +10°C° 0 mm 4 mps 750 mmHg 65%
19:00 +8°C° 0 mm 4 mps 750 mmHg 68%
20:00 +8°C° 0 mm 4 mps 750 mmHg 71%
21:00 +7°C° 0 mm 4 mps 750 mmHg 72%
22:00 +8°C° 0 mm 3 mps 749 mmHg 73%
23:00 +7°C° 0 mm 3 mps 749 mmHg 75%

20 April, Tuesday

Time Temperature Precipitation Wind Pressure Humidity
00:00 +6°C° 0 mm 4 mps 749 mmHg 76%
01:00 +6°C° 0 mm 4 mps 749 mmHg 78%
02:00 +6°C° 0 mm 5 mps 748 mmHg 80%
03:00 +6°C° 0 mm 5 mps 748 mmHg 81%
04:00 +6°C° 0 mm 5 mps 748 mmHg 82%
05:00 +5°C° 0 mm 6 mps 747 mmHg 82%
06:00 +5°C° 0 mm 6 mps 747 mmHg 78%
07:00 +7°C° 0 mm 6 mps 747 mmHg 73%
08:00 +7°C° 0 mm 6 mps 747 mmHg 68%
09:00 +8°C° 0 mm 6 mps 747 mmHg 63%
10:00 +9°C° 0 mm 6 mps 747 mmHg 58%
11:00 +10°C° 0 mm 6 mps 747 mmHg 53%
12:00 +10°C° 0 mm 6 mps 746 mmHg 52%
13:00 +10°C° 0 mm 6 mps 746 mmHg 51%
14:00 +12°C° 0 mm 5 mps 746 mmHg 50%
15:00 +10°C° 0 mm 5 mps 745 mmHg 51%
16:00 +10°C° 0 mm 5 mps 745 mmHg 52%
17:00 +10°C° 0 mm 5 mps 745 mmHg 53%
18:00 +10°C° 0 mm 4 mps 745 mmHg 56%
19:00 +8°C° 0 mm 4 mps 745 mmHg 59%
20:00 +7°C° 0 mm 4 mps 745 mmHg 63%
21:00 +6°C° 0 mm 4 mps 745 mmHg 66%
22:00 +6°C° 0 mm 4 mps 745 mmHg 69%
23:00 +5°C° 0 mm 3 mps 744 mmHg 72%
Show more

We Need Your Consent

Meteoprog and our Service Providers may store and access personal data such as cookies, device identifiers or other similar technologies on your device and process such data to personalise content and ads, as well as provide social media features and to analyse the traffic.

  • Store and/or access information on your device

    Cookies, device identifiers or other information can be stored or accessed on your device for the purposes indicated above.

  • Personalised ads and content, ad and content measurement, audience insights, and products development

    Ads and content can be personalised based on a profile. More data can be added to better personalise ads and content. Ad and content performance can be measured. Insights about the audience who saw the ads and content can be derived. Such data can be used to develop or improve user’s experience, systems and software.

By clicking ‘I Agree’ you will allow the use of indicated cookies, device identifiers, web beacons or other similar technologies. Your settings can be changed in the browser on your device.

For certain purposes, legitimate interests may be relied on, rather than consent. You can read more about this in our Privacy and Cookie Policy.